| time (UTC) | temp F | wind direction | speed MPH | gust MPH | rain 1hr in | rain 24hr in | rain mn in | humidity % | barometer mb |
| 20260508224517 | 76 | 315 | 3.0 | 8.0 | 0.00 | 0.00 | 0.00 | 43 | 1008.8 |
| 20260508223540 | 75 | 315 | 2.0 | 5.0 | 0.00 | 0.00 | 0.00 | 46 | 1008.7 |
| 20260508222517 | 76 | 315 | 3.0 | 6.0 | 0.00 | 0.00 | 0.00 | 43 | 1008.7 |
| 20260508221517 | 76 | 270 | 3.0 | 6.0 | 0.00 | 0.00 | 0.00 | 44 | 1008.7 |
| 20260508220517 | 75 | 248 | 2.0 | 6.0 | 0.00 | 0.00 | 0.00 | 46 | 1008.9 |
| 20260508215517 | 75 | 0 | 2.0 | 7.0 | 0.00 | 0.00 | 0.00 | 45 | 1009.0 |
| 20260508214517 | 75 | 315 | 2.0 | 5.0 | 0.00 | 0.00 | 0.00 | 44 | 1009.0 |
| 20260508213557 | 75 | 338 | 3.0 | 7.0 | 0.00 | 0.00 | 0.00 | 43 | 1009.1 |
| 20260508212517 | 75 | 293 | 3.0 | 7.0 | 0.00 | 0.00 | 0.00 | 44 | 1009.3 |
| 20260508211538 | 75 | 315 | 2.0 | 5.0 | 0.00 | 0.00 | 0.00 | 46 | 1009.4 |
| 20260508210517 | 76 | 338 | 2.0 | 4.0 | 0.00 | 0.00 | 0.00 | 46 | 1009.5 |
| 20260508205517 | 76 | 293 | 2.0 | 5.0 | 0.00 | 0.00 | 0.00 | 43 | 1009.6 |
| 20260508204517 | 77 | 293 | 2.0 | 7.0 | 0.00 | 0.00 | 0.00 | 42 | 1009.8 |
| 20260508203537 | 76 | 135 | 3.0 | 8.0 | 0.00 | 0.00 | 0.00 | 43 | 1009.8 |
| 20260508202517 | 75 | 158 | 3.0 | 9.0 | 0.00 | 0.00 | 0.00 | 42 | 1010.0 |
| 20260508201517 | 74 | 225 | 3.0 | 10.0 | 0.00 | 0.00 | 0.00 | 44 | 1010.1 |
| 20260508200517 | 74 | 180 | 4.0 | 9.0 | 0.00 | 0.00 | 0.00 | 43 | 1010.2 |
| 20260508195517 | 74 | 315 | 3.0 | 6.0 | 0.00 | 0.00 | 0.00 | 48 | 1010.3 |
| 20260508194537 | 74 | 293 | 3.0 | 8.0 | 0.00 | 0.00 | 0.00 | 46 | 1010.2 |
| 20260508193517 | 73 | 248 | 4.0 | 8.0 | 0.00 | 0.00 | 0.00 | 47 | 1010.3 |
| 20260508192517 | 73 | 180 | 4.0 | 7.0 | 0.00 | 0.00 | 0.00 | 47 | 1010.4 |
| 20260508191517 | 73 | 158 | 3.0 | 7.0 | 0.00 | 0.00 | 0.00 | 50 | 1010.5 |
| 20260508190517 | 72 | 113 | 4.0 | 8.0 | 0.00 | 0.00 | 0.00 | 52 | 1010.5 |
| 20260508185517 | 72 | 203 | 4.0 | 10.0 | 0.00 | 0.00 | 0.00 | 53 | 1010.7 |
| 20260508184518 | 71 | 180 | 3.0 | 9.0 | 0.00 | 0.00 | 0.00 | 53 | 1010.9 |
| 20260508183517 | 70 | 203 | 3.0 | 6.0 | 0.00 | 0.00 | 0.00 | 55 | 1011.0 |
| 20260508182517 | 69 | 180 | 4.0 | 8.0 | 0.00 | 0.00 | 0.00 | 54 | 1011.1 |
| 20260508181517 | 69 | 180 | 3.0 | 6.0 | 0.00 | 0.00 | 0.00 | 56 | 1011.2 |
| 20260508180538 | 69 | 180 | 4.0 | 8.0 | 0.00 | 0.00 | 0.00 | 54 | 1011.5 |
| 20260508175517 | 69 | 180 | 4.0 | 7.0 | 0.00 | 0.00 | 0.00 | 56 | 1011.5 |
| 20260508174517 | 68 | 135 | 3.0 | 8.0 | 0.00 | 0.00 | 0.00 | 57 | 1011.6 |
| 20260508173516 | 67 | 180 | 3.0 | 5.0 | 0.00 | 0.00 | 0.00 | 59 | 1011.9 |
| 20260508172518 | 66 | 180 | 4.0 | 8.0 | 0.00 | 0.00 | 0.00 | 59 | 1011.8 |
| 20260508171537 | 65 | 180 | 3.0 | 6.0 | 0.00 | 0.00 | 0.00 | 60 | 1012.0 |
| 20260508170517 | 65 | 180 | 3.0 | 7.0 | 0.00 | 0.00 | 0.00 | 59 | 1012.2 |
| 20260508165517 | 65 | 203 | 3.0 | 8.0 | 0.00 | 0.00 | 0.00 | 60 | 1012.4 |
| 20260508164517 | 64 | 158 | 3.0 | 5.0 | 0.00 | 0.00 | 0.00 | 62 | 1012.7 |
| 20260508163516 | 64 | 225 | 3.0 | 6.0 | 0.00 | 0.00 | 0.00 | 61 | 1012.7 |
| 20260508162516 | 64 | 180 | 3.0 | 6.0 | 0.00 | 0.00 | 0.00 | 61 | 1012.8 |
| 20260508161517 | 64 | 158 | 3.0 | 6.0 | 0.00 | 0.00 | 0.00 | 61 | 1013.0 |
| 20260508160516 | 64 | 203 | 3.0 | 7.0 | 0.00 | 0.00 | 0.00 | 63 | 1013.2 |
| 20260508155537 | 63 | 203 | 2.0 | 5.0 | 0.00 | 0.00 | 0.00 | 64 | 1013.4 |
| 20260508154516 | 63 | 180 | 3.0 | 8.0 | 0.00 | 0.00 | 0.00 | 63 | 1013.7 |
| 20260508153518 | 63 | 180 | 3.0 | 6.0 | 0.00 | 0.00 | 0.00 | 63 | 1013.4 |
| 20260508152516 | 63 | 135 | 4.0 | 8.0 | 0.00 | 0.00 | 0.00 | 63 | 1013.2 |
| 20260508151517 | 62 | 180 | 3.0 | 7.0 | 0.00 | 0.00 | 0.00 | 64 | 1013.5 |
| 20260508150516 | 62 | 203 | 3.0 | 7.0 | 0.00 | 0.00 | 0.00 | 64 | 1013.7 |
| 20260508145516 | 62 | 180 | 3.0 | 5.0 | 0.00 | 0.00 | 0.00 | 64 | 1013.8 |
| 20260508144516 | 62 | 180 | 3.0 | 8.0 | 0.00 | 0.00 | 0.00 | 66 | 1014.1 |
| 20260508143516 | 61 | 180 | 2.0 | 4.0 | 0.00 | 0.00 | 0.00 | 69 | 1014.1 |
| 20260508142516 | 61 | 180 | 2.0 | 5.0 | 0.00 | 0.00 | 0.00 | 69 | 1014.0 |
| 20260508141516 | 61 | 158 | 3.0 | 8.0 | 0.00 | 0.00 | 0.00 | 68 | 1013.6 |
| 20260508140516 | 60 | 180 | 3.0 | 6.0 | 0.00 | 0.00 | 0.00 | 69 | 1013.9 |
| 20260508135516 | 60 | 158 | 4.0 | 7.0 | 0.00 | 0.00 | 0.00 | 70 | 1013.9 |
| 20260508134516 | 58 | 135 | 3.0 | 6.0 | 0.00 | 0.00 | 0.00 | 72 | 1013.7 |
| 20260508133516 | 57 | 158 | 3.0 | 7.0 | 0.00 | 0.00 | 0.00 | 73 | 1013.8 |
| 20260508132516 | 57 | 135 | 3.0 | 7.0 | 0.00 | 0.00 | 0.00 | 75 | 1013.8 |
| 20260508131516 | 56 | 135 | 3.0 | 6.0 | 0.00 | 0.00 | 0.00 | 75 | 1013.8 |
| 20260508130538 | 56 | 135 | 4.0 | 8.0 | 0.00 | 0.00 | 0.00 | 76 | 1014.1 |
| 20260508125516 | 55 | 135 | 4.0 | 8.0 | 0.00 | 0.00 | 0.00 | 77 | 1013.9 |
| 20260508124518 | 54 | 158 | 3.0 | 5.0 | 0.00 | 0.00 | 0.00 | 78 | 1013.9 |
| 20260508123536 | 54 | 135 | 4.0 | 8.0 | 0.00 | 0.00 | 0.00 | 79 | 1014.0 |
| 20260508122518 | 53 | 135 | 3.0 | 5.0 | 0.00 | 0.00 | 0.00 | 80 | 1013.9 |
| 20260508121516 | 52 | 135 | 2.0 | 3.0 | 0.00 | 0.00 | 0.00 | 82 | 1014.0 |
| 20260508120516 | 51 | 135 | 2.0 | 7.0 | 0.00 | 0.00 | 0.00 | 83 | 1014.0 |
| 20260508115516 | 50 | 113 | 3.0 | 6.0 | 0.00 | 0.00 | 0.00 | 84 | 1013.9 |
| 20260508114516 | 49 | 158 | 2.0 | 4.0 | 0.00 | 0.00 | 0.00 | 85 | 1013.9 |
| 20260508113518 | 49 | 113 | 1.0 | 3.0 | 0.00 | 0.00 | 0.00 | 84 | 1013.8 |
| 20260508112516 | 49 | 113 | 1.0 | 2.0 | 0.00 | 0.00 | 0.00 | 84 | 1013.8 |
| 20260508111516 | 48 | 180 | 1.0 | 2.0 | 0.00 | 0.00 | 0.00 | 84 | 1013.7 |
| 20260508110516 | 48 | 180 | 1.0 | 2.0 | 0.00 | 0.00 | 0.00 | 84 | 1013.6 |
| 20260508105516 | 48 | 180 | 1.0 | 3.0 | 0.00 | 0.00 | 0.00 | 83 | 1013.6 |
| 20260508104516 | 48 | 158 | 1.0 | 3.0 | 0.00 | 0.00 | 0.00 | 83 | 1013.7 |
| 20260508103516 | 48 | 158 | 2.0 | 4.0 | 0.00 | 0.00 | 0.00 | 83 | 1013.8 |
| 20260508102538 | 48 | 113 | 1.0 | 2.0 | 0.00 | 0.00 | 0.00 | 82 | 1013.9 |
| 20260508101516 | 48 | 113 | 1.0 | 2.0 | 0.00 | 0.00 | 0.00 | 81 | 1013.9 |
| 20260508100518 | 48 | 158 | 1.0 | 5.0 | 0.00 | 0.00 | 0.00 | 80 | 1013.8 |
| 20260508095517 | 48 | 158 | 1.0 | 2.0 | 0.00 | 0.00 | 0.00 | 79 | 1013.9 |
| 20260508094516 | 49 | 158 | 1.0 | 3.0 | 0.00 | 0.00 | 0.00 | 79 | 1014.0 |
| 20260508093516 | 49 | 158 | 1.0 | 3.0 | 0.00 | 0.00 | 0.00 | 79 | 1014.0 |
| 20260508092516 | 48 | 158 | 1.0 | 4.0 | 0.00 | 0.00 | 0.00 | 79 | 1014.1 |
| 20260508091516 | 48 | 135 | 1.0 | 3.0 | 0.00 | 0.00 | 0.00 | 79 | 1014.1 |
| 20260508090516 | 49 | 135 | 1.0 | 5.0 | 0.00 | 0.00 | 0.00 | 79 | 1014.1 |
| 20260508085536 | 49 | 158 | 1.0 | 3.0 | 0.00 | 0.00 | 0.00 | 79 | 1014.0 |
| 20260508084537 | 48 | 180 | 2.0 | 4.0 | 0.00 | 0.00 | 0.00 | 81 | 1014.0 |
| 20260508083536 | 48 | 135 | 2.0 | 4.0 | 0.00 | 0.00 | 0.00 | 82 | 1014.0 |
| 20260508082516 | 48 | 135 | 1.0 | 3.0 | 0.00 | 0.00 | 0.00 | 82 | 1014.0 |
| 20260508081516 | 49 | 135 | 1.0 | 3.0 | 0.00 | 0.00 | 0.00 | 81 | 1013.9 |
| 20260508080516 | 49 | 180 | 2.0 | 3.0 | 0.00 | 0.00 | 0.00 | 81 | 1014.0 |
| 20260508075540 | 49 | 158 | 1.0 | 3.0 | 0.00 | 0.00 | 0.00 | 81 | 1013.9 |
| 20260508074517 | 49 | 135 | 1.0 | 3.0 | 0.00 | 0.00 | 0.00 | 81 | 1014.0 |
| 20260508073516 | 49 | 135 | 1.0 | 2.0 | 0.00 | 0.00 | 0.00 | 81 | 1014.1 |
| 20260508072515 | 49 | 0.0 | 2.0 | 0.00 | 0.00 | 0.00 | 81 | 1014.2 | |
| 20260508071515 | 49 | 0.0 | 0.0 | 0.00 | 0.00 | 0.00 | 81 | 1014.2 | |
| 20260508070536 | 49 | 0.0 | 2.0 | 0.00 | 0.00 | 0.00 | 80 | 1014.3 | |
| 20260508065516 | 49 | 0.0 | 3.0 | 0.00 | 0.00 | 0.00 | 80 | 1014.3 | |
| 20260508064516 | 49 | 0.0 | 0.0 | 0.00 | 0.00 | 0.00 | 81 | 1014.5 | |
| 20260508063515 | 49 | 0.0 | 1.0 | 0.00 | 0.00 | 0.00 | 81 | 1014.7 | |
| 20260508062516 | 49 | 135 | 1.0 | 2.0 | 0.00 | 0.00 | 0.00 | 82 | 1014.8 |
| 20260508061520 | 49 | 0.0 | 0.0 | 0.00 | 0.00 | 0.00 | 82 | 1014.9 | |
| 20260508060516 | 49 | 0.0 | 1.0 | 0.00 | 0.00 | 0.00 | 82 | 1014.9 | |
| 20260508055539 | 49 | 0.0 | 1.0 | 0.00 | 0.00 | 0.00 | 82 | 1014.9 | |
| 20260508054517 | 49 | 0.0 | 1.0 | 0.00 | 0.00 | 0.00 | 81 | 1015.0 | |
| 20260508053517 | 50 | 135 | 1.0 | 2.0 | 0.00 | 0.00 | 0.00 | 81 | 1015.0 |
| 20260508052640 | 50 | 135 | 1.0 | 2.0 | 0.00 | 0.00 | 0.00 | 81 | 1015.0 |
| 20260508051518 | 50 | 0.0 | 2.0 | 0.00 | 0.00 | 0.00 | 80 | 1015.0 | |
| 20260508050518 | 50 | 135 | 1.0 | 2.0 | 0.00 | 0.00 | 0.00 | 80 | 1015.1 |
| 20260508045516 | 50 | 0.0 | 0.0 | 0.00 | 0.00 | 0.00 | 80 | 1015.0 | |
| 20260508044516 | 50 | 135 | 1.0 | 2.0 | 0.00 | 0.00 | 0.00 | 81 | 1015.0 |
| 20260508043516 | 50 | 0.0 | 1.0 | 0.00 | 0.00 | 0.00 | 81 | 1015.1 | |
| 20260508042516 | 50 | 0.0 | 2.0 | 0.00 | 0.00 | 0.00 | 82 | 1015.2 | |
| 20260508041516 | 50 | 0.0 | 0.0 | 0.00 | 0.00 | 0.00 | 81 | 1015.1 | |
| 20260508040616 | 50 | 0.0 | 0.0 | 0.00 | 0.00 | 0.00 | 80 | 1015.1 | |
| 20260508035516 | 50 | 0.0 | 0.0 | 0.00 | 0.00 | 0.00 | 79 | 1015.0 | |
| 20260508034516 | 51 | 0.0 | 0.0 | 0.00 | 0.00 | 0.00 | 78 | 1015.0 | |
| 20260508033516 | 51 | 0.0 | 0.0 | 0.00 | 0.00 | 0.00 | 76 | 1015.1 | |
| 20260508032516 | 51 | 0.0 | 0.0 | 0.00 | 0.00 | 0.00 | 75 | 1015.2 | |
| 20260508031516 | 52 | 0.0 | 0.0 | 0.00 | 0.00 | 0.00 | 73 | 1015.1 | |
| 20260508030536 | 52 | 0.0 | 0.0 | 0.00 | 0.00 | 0.00 | 71 | 1015.1 | |
| 20260508025516 | 53 | 0.0 | 0.0 | 0.00 | 0.00 | 0.00 | 69 | 1015.1 | |
| 20260508024517 | 53 | 0.0 | 0.0 | 0.00 | 0.00 | 0.00 | 68 | 1015.1 | |
| 20260508023536 | 53 | 0.0 | 0.0 | 0.00 | 0.00 | 0.00 | 67 | 1015.1 | |
| 20260508022515 | 54 | 0.0 | 0.0 | 0.00 | 0.00 | 0.00 | 66 | 1014.9 | |
| 20260508021517 | 54 | 0.0 | 0.0 | 0.00 | 0.00 | 0.00 | 66 | 1014.8 | |
| 20260508020517 | 55 | 0.0 | 0.0 | 0.00 | 0.00 | 0.00 | 65 | 1014.7 | |
| 20260508015516 | 55 | 0.0 | 0.0 | 0.00 | 0.00 | 0.00 | 63 | 1014.6 | |
| 20260508014515 | 56 | 0.0 | 0.0 | 0.00 | 0.00 | 0.00 | 61 | 1014.5 | |
| 20260508013516 | 57 | 0.0 | 0.0 | 0.00 | 0.00 | 0.00 | 60 | 1014.4 | |
| 20260508012515 | 58 | 0.0 | 0.0 | 0.00 | 0.00 | 0.00 | 58 | 1014.3 | |
| 20260508011515 | 59 | 0.0 | 0.0 | 0.00 | 0.00 | 0.00 | 55 | 1014.2 | |
| 20260508010516 | 60 | 0.0 | 0.0 | 0.00 | 0.00 | 0.00 | 53 | 1014.1 | |
| 20260508005515 | 62 | 0.0 | 0.0 | 0.00 | 0.00 | 0.00 | 51 | 1014.0 | |
| 20260508004535 | 63 | 0.0 | 0.0 | 0.00 | 0.00 | 0.00 | 47 | 1013.9 | |
| 20260508003601 | 63 | 0.0 | 2.0 | 0.00 | 0.00 | 0.00 | 45 | 1013.8 | |
| 20260508002537 | 64 | 0.0 | 3.0 | 0.00 | 0.00 | 0.00 | 43 | 1013.7 | |
| 20260508001517 | 64 | 135 | 1.0 | 3.0 | 0.00 | 0.00 | 0.00 | 42 | 1013.7 |
| 20260508000518 | 65 | 180 | 1.0 | 4.0 | 0.00 | 0.00 | 0.00 | 40 | 1013.7 |
| 20260507235517 | 66 | 158 | 2.0 | 4.0 | 0.00 | 0.00 | 0.00 | 40 | 1013.7 |
| 20260507234536 | 66 | 135 | 2.0 | 6.0 | 0.00 | 0.00 | 0.00 | 38 | 1013.8 |
| 20260507233518 | 66 | 225 | 2.0 | 5.0 | 0.00 | 0.00 | 0.00 | 39 | 1013.9 |
| 20260507232517 | 66 | 180 | 2.0 | 7.0 | 0.00 | 0.00 | 0.00 | 38 | 1013.9 |
| 20260507231517 | 66 | 158 | 2.0 | 4.0 | 0.00 | 0.00 | 0.00 | 38 | 1014.0 |
| 20260507230519 | 67 | 135 | 3.0 | 8.0 | 0.00 | 0.00 | 0.00 | 38 | 1014.1 |
| 20260507225517 | 67 | 180 | 3.0 | 8.0 | 0.00 | 0.00 | 0.00 | 37 | 1014.2 |